{"data":{"norad_id":66930,"intl_designator":"2025-286F","name":"STARLINK-36206","alt_names":[],"object_type":"PAYLOAD","status":"ACTIVE","operator":null,"country":"US","launch_date":"2025-12-07","launch_site_code":"AFWTR","launch_vehicle":null,"mission":null,"orbit_class":"UNKNOWN","rcs_meters":null,"size_class":null,"mass_kg":null,"dimensions":null,"purposes":["comms"],"wikipedia_slug":null,"has_3d_model":false,"image_url":null,"decayed_at":null,"tle_current":{"epoch":"2026-09-20T05:39:35.766432Z","epoch_age_seconds":106743,"freshness":"FRESH","line1":"1 66930U 25286F   26263.23583063  .00016777  00000+0  50649-3 0  9990","line2":"2 66930  53.1602 171.1879 0001378  31.4084 328.7001 15.34404613 45243","mean_motion":15.34404613,"eccentricity":0.0001378,"inclination_deg":53.1602,"raan_deg":171.1879,"arg_perigee_deg":31.4084,"mean_anomaly_deg":328.7001,"bstar":0.00050649,"rev_number":4524,"period_min":93.847475939516,"perigee_km":461.74686353755,"apogee_km":463.63219532907,"semimajor_km":6840.8265294333,"source":"CELESTRAK","updated_at":"2026-09-21T09:00:36.056590Z"}}}